CW6881 Weather Reports


time (UTC)temp
C
wind
direction
speed
KPH
gust
KPH
rain 1hr
cm
rain 24hr
cm
rain mn
cm
humidity
%
barometer
mb
20260505122016 12 180 3.2 8.0 0.00 0.00 0.00 85 1014.3
20260505121016 12 203 1.6 4.8 0.00 0.00 0.00 85 1014.3
20260505120016 12 225 3.2 8.0 0.00 0.00 0.00 85 1014.2
20260505115015 12 203 1.6 4.8 0.00 0.00 0.00 85 1014.2
20260505114016 12 203 1.6 4.8 0.00 0.00 0.00 85 1014.2
20260505113016 12 203 3.2 6.4 0.00 0.00 0.00 85 1014.2
20260505112016 12 158 1.6 8.0 0.00 0.00 0.00 85 1014.1
20260505111016 12 180 1.6 6.4 0.00 0.00 0.00 85 1014.1
20260505102016 12 0.0 3.2 0.00 0.00 0.00 85 1013.8
20260505101016 12 158 3.2 8.0 0.00 0.00 0.00 85 1013.7
20260505100016 12 203 1.6 4.8 0.00 0.00 0.00 85 1013.7
20260505095016 12 0.0 3.2 0.00 0.00 0.00 85 1013.6
20260505094036 12 180 3.2 8.0 0.00 0.00 0.00 85 1013.6
20260505093016 12 203 3.2 4.8 0.00 0.00 0.00 85 1013.5
20260505092056 12 203 4.8 12.9 0.00 0.00 0.00 85 1013.4
20260505091016 12 180 4.8 17.7 0.00 0.00 0.00 85 1013.5
20260505090016 11 225 4.8 11.3 0.00 0.00 0.00 85 1013.3
20260505085056 11 180 1.6 6.4 0.00 0.00 0.00 85 1013.2
20260505084016 11 180 1.6 8.0 0.00 0.00 0.00 85 1013.3
20260505083116 11 203 3.2 8.0 0.00 0.00 0.00 85 1013.2
20260505082016 11 203 1.6 6.4 0.00 0.00 0.00 85 1013.2
20260505081016 11 0.0 3.2 0.00 0.00 0.00 85 1013.2
20260505080016 11 0.0 4.8 0.00 0.00 0.00 85 1013.2
20260505075016 11 203 1.6 4.8 0.00 0.00 0.00 85 1013.0
20260505074036 12 0.0 4.8 0.00 0.00 0.00 85 1012.9
20260505073016 12 0.0 3.2 0.00 0.00 0.00 85 1012.7
20260505072016 12 158 1.6 6.4 0.00 0.00 0.00 85 1012.6
20260505071016 12 203 4.8 9.7 0.00 0.00 0.00 85 1012.5
20260505070016 12 203 3.2 6.4 0.00 0.00 0.00 85 1012.5
20260505065016 12 203 1.6 6.4 0.00 0.00 0.00 85 1012.5
20260505064016 12 225 1.6 4.8 0.00 0.00 0.00 85 1012.4
20260505063016 12 180 3.2 8.0 0.00 0.00 0.00 85 1012.2
20260505062016 12 180 3.2 6.4 0.00 0.00 0.00 84 1012.1
20260505061016 12 180 3.2 9.7 0.00 0.00 0.00 84 1012.1
20260505060016 12 0.0 3.2 0.00 0.00 0.00 84 1011.9
20260505055016 13 180 1.6 4.8 0.00 0.00 0.00 83 1011.8
20260505054016 13 203 3.2 9.7 0.00 0.00 0.00 83 1011.7
20260505053056 13 203 3.2 6.4 0.00 0.00 0.00 83 1011.7
20260505052016 13 203 1.6 4.8 0.00 0.00 0.00 82 1011.7
20260505051016 13 225 1.6 6.4 0.00 0.00 0.00 82 1011.6
20260505041016 15 203 6.4 14.5 0.00 0.00 0.00 77 1010.8
20260505040016 15 203 8.0 19.3 0.00 0.00 0.00 76 1010.7
20260505035016 16 180 6.4 19.3 0.00 0.00 0.00 74 1010.7
20260505034016 16 0.0 0.0 0.00 0.00 0.00 73 1010.5
20260505033036 17 0.0 0.0 0.00 0.00 0.00 71 1010.3
20260505032016 17 0.0 0.0 0.00 0.00 0.00 69 1010.2
20260505031016 18 0.0 0.0 0.00 0.00 0.00 68 1010.1
20260505030016 18 0.0 0.0 0.00 0.00 0.00 67 1010.0
20260505025056 19 0.0 0.0 0.00 0.00 0.00 66 1009.9
20260505024036 20 0.0 0.0 0.00 0.00 0.00 64 1009.8
20260505023036 20 0.0 0.0 0.00 0.00 0.00 63 1009.6
20260505022016 20 0.0 0.0 0.00 0.00 0.00 61 1009.7
20260505021016 21 0.0 0.0 0.00 0.00 0.00 60 1009.6
20260505020016 21 0.0 0.0 0.00 0.00 0.00 58 1009.5
20260505015016 22 0.0 0.0 0.00 0.00 0.00 56 1009.5
20260505014016 22 0.0 0.0 0.00 0.00 0.00 55 1009.5
20260505013016 23 0.0 0.0 0.00 0.00 0.00 56 1009.5
20260505012016 23 0.0 0.0 0.00 0.00 0.00 55 1009.4
20260505011016 23 0.0 0.0 0.00 0.00 0.00 53 1009.6
20260505010016 24 0.0 0.0 0.00 0.00 0.00 54 1009.6
20260505005016 25 0.0 0.0 0.00 0.00 0.00 52 1009.6
20260505004036 25 0.0 0.0 0.00 0.00 0.00 50 1009.5
20260505003016 25 0.0 0.0 0.00 0.00 0.00 50 1009.6
20260505002056 26 0.0 0.0 0.00 0.00 0.00 49 1009.6
20260505001036 26 0.0 0.0 0.00 0.00 0.00 50 1009.6
20260505000016 26 0.0 0.0 0.00 0.00 0.00 50 1009.6
20260504235016 26 0.0 0.0 0.00 0.00 0.00 51 1009.6
20260504234016 26 0.0 0.0 0.00 0.00 0.00 50 1009.5
20260504233016 25 0.0 0.0 0.00 0.00 0.00 49 1009.6
20260504232036 26 0.0 0.0 0.00 0.00 0.00 49 1009.6
20260504231016 26 0.0 0.0 0.00 0.00 0.00 50 1009.8
20260504230016 26 0.0 0.0 0.00 0.00 0.00 51 1010.0
20260504225016 26 0.0 0.0 0.00 0.00 0.00 49 1010.1
20260504224016 26 0.0 0.0 0.00 0.00 0.00 50 1010.2
20260504223016 27 0.0 0.0 0.00 0.00 0.00 51 1010.1
20260504222036 26 0.0 0.0 0.00 0.00 0.00 50 1010.3
20260504221016 26 0.0 0.0 0.00 0.00 0.00 51 1010.4
20260504220016 26 0.0 0.0 0.00 0.00 0.00 48 1010.4
20260504215016 27 0.0 0.0 0.00 0.00 0.00 46 1010.5
20260504214016 27 0.0 0.0 0.00 0.00 0.00 47 1010.6
20260504213016 26 0.0 0.0 0.00 0.00 0.00 47 1010.6
20260504212016 26 0.0 0.0 0.00 0.00 0.00 48 1010.7
20260504211016 26 0.0 0.0 0.00 0.00 0.00 51 1010.7
20260504210016 26 0.0 0.0 0.00 0.00 0.00 50 1010.8
20260504205016 25 0.0 0.0 0.00 0.00 0.00 54 1010.9
20260504204016 24 0.0 0.0 0.00 0.00 0.00 54 1010.7
20260504203016 25 0.0 0.0 0.00 0.00 0.00 48 1010.9
20260504202016 24 0.0 0.0 0.00 0.00 0.00 51 1010.8
20260504201036 23 0.0 0.0 0.00 0.00 0.00 54 1011.0
20260504200016 24 0.0 0.0 0.00 0.00 0.00 54 1011.2
20260504195016 24 0.0 0.0 0.00 0.00 0.00 57 1011.0
20260504194036 23 0.0 0.0 0.00 0.00 0.00 56 1011.1
20260504193036 23 0.0 0.0 0.00 0.00 0.00 56 1011.1
20260504192036 22 0.0 0.0 0.00 0.00 0.00 53 1011.2
20260504191016 23 0.0 0.0 0.00 0.00 0.00 56 1011.3
20260504190016 23 0.0 0.0 0.00 0.00 0.00 56 1011.3
20260504185016 22 0.0 0.0 0.00 0.00 0.00 57 1011.4
20260504184016 21 0.0 0.0 0.00 0.00 0.00 56 1011.4
20260504183016 22 0.0 0.0 0.00 0.00 0.00 56 1011.6
20260504182016 21 0.0 0.0 0.00 0.00 0.00 57 1011.6
20260504181026 21 0.0 0.0 0.00 0.00 0.00 59 1011.7
20260504180026 21 0.0 0.0 0.00 0.00 0.00 59 1011.5
20260504175026 21 0.0 0.0 0.00 0.00 0.00 59 1011.5
20260504174026 21 0.0 0.0 0.00 0.00 0.00 62 1011.5
20260504173106 20 0.0 0.0 0.00 0.00 0.00 63 1011.5
20260504172026 21 0.0 0.0 0.00 0.00 0.00 60 1011.4
20260504171016 20 0.0 0.0 0.00 0.00 0.00 61 1011.3
20260504151016 17 0.0 0.0 0.00 0.00 0.00 70 1010.6
20260504141016 13 0.0 0.0 0.00 0.00 0.00 84 1010.3